Nuiqsut, AK

3:23 PM AKST on February 25, 2017 (GMT -0900)
Nuiqsut

Weather History for PAQT - August, 2013

Change the Weather History Date:

Wednesday, August 14, 2013

  Actual Average (PAKU) Record (PAKU)
Temperature  
Mean Temperature 43 °F -  
Max Temperature 46 °F 46 °F 66 °F (2010)
Min Temperature 41 °F 37 °F 31 °F (1992)
Degree Days  
Heating Degree Days 22    
Moisture  
Dew Point 43 °F    
Average Humidity 98    
Maximum Humidity 100    
Minimum Humidity 93    
Precipitation  
Precipitation 0.04 in - - ()
Sea Level Pressure  
Sea Level Pressure 30.02 in    
Wind  
Wind Speed 11 mph (NE)    
Max Wind Speed 15 mph    
Max Gust Speed -    
Visibility 8 miles    
Events Fog , Rain    
Averages and records for this station are not official NWS values.
T = Trace of Precipitation, MM = Missing Value Source: NWS Daily Summary

Daily Weather History Graph

Daily Weather History Graph

Search for Another Location

Airport or City:

Trip Planner

Search our weather history database for the weather conditions in past years. The results will help you decide how hot, cold, wet, or windy it might be!

Date:

Astronomy

Aug. 14, 2013 Rise Set
Actual Time 4:55 AM AKDT 11:17 PM AKDT
Civil Twilight 2:41 AM AKDT 1:36 AM AKDT
Nautical Twilight Sun does not rise Sun does not rise
Astronomical Twilight Sun does not rise Sun does not rise
Moon 7:12 PM AKDT (8/14) 9:41 PM AKDT (8/14)
Length of Visible Light 22h 54m
Length of Day
18h 22m
First Quarter, 54% of the Moon is Illuminated
Aug 14
First Quarter
Aug 20
Full
Aug 28
Last Quarter
Sep 5
New
Sep 12
First Quarter

Hourly Weather History & Observations

Time (AKDT) Temp. Windchill Dew Point Humidity Pressure Visibility Wind Dir Wind Speed Gust Speed Precip Events Conditions
12:53 AM 43.0 °F 36.4 °F 43.0 °F 100% 30.04 in 0.2 mi NNE 12.7 mph - N/A Fog Fog
1:53 AM 43.0 °F 37.2 °F 43.0 °F 100% 30.05 in 1.0 mi NE 10.4 mph - N/A   Mist
2:14 AM 42.8 °F 36.2 °F 42.8 °F 100% 30.04 in 2.5 mi NE 12.7 mph - N/A   Overcast
2:21 AM 42.8 °F 37.0 °F 42.8 °F 100% 30.04 in 7.0 mi NE 10.4 mph - N/A   Overcast
2:53 AM 42.1 °F 35.7 °F 42.1 °F 100% 30.04 in 10.0 mi NE 11.5 mph - N/A   Overcast
3:04 AM 42.8 °F 36.2 °F 42.8 °F 100% 30.04 in 10.0 mi NE 12.7 mph - N/A   Overcast
3:53 AM 42.1 °F 37.1 °F 42.1 °F 100% 30.03 in 10.0 mi NE 8.1 mph - N/A   Overcast
4:19 AM 42.8 °F 35.8 °F 42.8 °F 100% 30.03 in 10.0 mi NE 13.8 mph - N/A   Overcast
4:53 AM 42.1 °F 37.1 °F 42.1 °F 100% 30.03 in 10.0 mi ENE 8.1 mph - N/A   Overcast
5:53 AM 42.1 °F 36.1 °F 42.1 °F 100% 30.02 in 6.0 mi NE 10.4 mph - N/A   Overcast
6:06 AM 42.8 °F 38.0 °F 42.8 °F 100% 30.02 in 2.5 mi NNE 8.1 mph - N/A   Overcast
6:16 AM 42.8 °F 37.5 °F 42.8 °F 100% 30.02 in 1.5 mi NNE 9.2 mph - N/A   Overcast
6:30 AM 42.8 °F 37.5 °F 42.8 °F 100% 30.02 in 3.0 mi North 9.2 mph - N/A   Overcast
6:53 AM 43.0 °F 37.2 °F 43.0 °F 100% 30.02 in 9.0 mi NNE 10.4 mph - N/A   Overcast
7:53 AM 43.0 °F 36.8 °F 43.0 °F 100% 30.01 in 10.0 mi North 11.5 mph - N/A   Overcast
8:30 AM 42.8 °F 37.5 °F 42.8 °F 100% 30.01 in 6.0 mi NNE 9.2 mph - 0.00 in   Overcast
8:53 AM 43.0 °F 38.2 °F 43.0 °F 100% 30.02 in 6.0 mi NNE 8.1 mph - 0.00 in   Overcast
9:53 AM 44.1 °F 38.1 °F 43.0 °F 96% 30.01 in 10.0 mi NNE 11.5 mph - N/A   Overcast
10:53 AM 44.1 °F 39.0 °F 44.1 °F 100% 30.00 in 4.0 mi NNE 9.2 mph - N/A   Overcast
11:53 AM 44.1 °F 37.7 °F 43.0 °F 96% 30.01 in 10.0 mi NNE 12.7 mph - 0.00 in   Overcast
12:53 PM 45.0 °F 39.7 °F 44.1 °F 97% 30.01 in 10.0 mi NNE 10.4 mph - 0.00 in Rain Light Rain
1:13 PM 44.6 °F 38.8 °F 44.6 °F 100% 30.01 in 10.0 mi NE 11.5 mph - 0.00 in   Overcast
1:53 PM 45.0 °F 39.7 °F 43.0 °F 93% 30.01 in 10.0 mi NNE 10.4 mph - 0.00 in   Overcast
2:53 PM 45.0 °F 38.5 °F 43.0 °F 93% 30.00 in 10.0 mi NE 13.8 mph - N/A   Overcast
3:53 PM 44.1 °F 37.1 °F 43.0 °F 96% 30.00 in 10.0 mi NNE 15.0 mph - N/A   Overcast
4:53 PM 44.1 °F 37.1 °F 42.1 °F 93% 29.99 in 10.0 mi NE 15.0 mph - N/A   Overcast
5:53 PM 44.1 °F 38.1 °F 42.1 °F 93% 30.01 in 10.0 mi NNE 11.5 mph - N/A   Overcast
6:53 PM 43.0 °F 36.4 °F 41.0 °F 93% 30.01 in 10.0 mi NNE 12.7 mph - N/A   Overcast
7:53 PM 42.1 °F 35.7 °F 42.1 °F 100% 30.01 in 10.0 mi NNE 11.5 mph - 0.01 in   Overcast
8:53 PM 42.1 °F 34.5 °F 41.0 °F 96% 30.01 in 6.0 mi NE 15.0 mph - 0.01 in   Overcast
9:53 PM 42.1 °F 36.1 °F 41.0 °F 96% 30.03 in 9.0 mi NE 10.4 mph - 0.01 in Rain Light Rain
10:53 PM 41.0 °F 36.4 °F 41.0 °F 100% 30.04 in 10.0 mi NE 6.9 mph - 0.00 in   Overcast
11:53 PM 42.1 °F 37.1 °F 41.0 °F 96% 30.04 in 10.0 mi NE 8.1 mph - 0.01 in Rain Light Rain